Location: Street
(51.1247°N, 2.7429°W)
Time: 05:03:48
(UTC+01:00)

Altair - Visible Passes

Search period start: 19 May 2021 00:00
Search period end: 29 May 2021 00:00
Orbit: 1501 x 1683 km, 47.2° (Epoch: 18 May)

Date Brightness Start Highest point End Pass type
(mag) Time Alt. Az. Time Alt. Az. Time Alt. Az.
19 May 7.6 00:01:12 10° SW 00:11:04 59° SSE 00:20:55 10° E visible
19 May 7.6 02:05:22 10° W 02:15:29 72° S 02:25:26 10° ESE visible
19 May 7.8 04:10:03 10° W 04:19:44 53° SSW 04:29:09 10° SE visible
19 May 8.3 21:34:34 10° S 21:42:32 28° SE 21:50:32 10° E visible
19 May 7.6 23:36:06 10° SW 23:45:54 57° SSE 23:55:43 10° E visible
20 May 7.5 01:40:09 10° W 01:50:17 72° S 02:00:16 10° E visible
20 May 7.7 03:44:49 10° W 03:54:36 55° SSW 04:04:06 10° SE visible
20 May 7.7 23:11:00 10° SW 23:20:45 55° SSE 23:30:31 10° E visible
21 May 7.5 01:14:57 10° W 01:25:05 72° S 01:35:05 10° E visible
21 May 7.7 03:19:36 10° W 03:29:27 57° SSW 03:39:02 10° SE visible
21 May 7.7 22:45:55 10° SW 22:55:36 53° SSE 23:05:18 10° E visible
22 May 7.5 00:49:46 10° WSW 00:59:53 72° S 01:09:54 10° E visible
22 May 7.6 02:54:23 10° W 03:04:17 59° SSW 03:13:57 10° SE visible
22 May 7.8 22:20:52 10° SW 22:30:26 51° SSE 22:40:05 10° E visible
23 May 7.6 00:24:34 10° WSW 00:34:40 72° S 00:44:43 10° E visible
23 May 7.6 02:29:10 10° W 02:39:07 61° SSW 02:48:51 10° ESE visible
23 May 7.8 21:55:49 10° SW 22:05:18 49° SSE 22:14:53 10° E visible
23 May 7.6 23:59:23 10° WSW 00:09:28 71° S 00:19:32 10° E visible
24 May 7.6 02:03:57 10° W 02:13:56 63° SSW 02:23:45 10° ESE visible
24 May 8.1 04:08:55 10° W 04:17:33 33° SW 04:26:00 10° SSE visible
24 May 7.6 23:34:12 10° WSW 23:44:16 71° S 23:54:20 10° E visible
25 May 7.6 01:38:44 10° W 01:48:45 65° SSW 01:58:37 10° ESE visible
25 May 8.1 03:43:38 10° W 03:52:28 36° SW 04:01:08 10° SSE visible
25 May 7.6 23:09:02 10° WSW 23:19:04 70° S 23:29:08 10° E visible
26 May 7.6 01:13:32 10° W 01:23:34 66° SSW 01:33:29 10° ESE visible
26 May 8.0 03:18:22 10° W 03:27:23 38° SW 03:36:13 10° SSE visible
26 May 7.6 22:43:53 10° WSW 22:53:52 69° SSE 23:03:56 10° E visible
27 May 7.6 00:48:20 10° W 00:58:23 68° SSW 01:08:22 10° ESE visible
27 May 7.9 02:53:07 10° W 03:02:16 40° SW 03:11:17 10° SSE visible
27 May 7.7 22:18:43 10° WSW 22:28:41 67° SSE 22:38:44 10° E visible
28 May 7.6 00:23:07 10° W 00:33:12 69° S 00:43:11 10° ESE visible
28 May 7.9 02:27:52 10° W 02:37:10 42° SW 02:46:19 10° SSE visible
28 May 7.7 21:53:35 10° WSW 22:03:30 66° SSE 22:13:32 10° E visible
